Showing default

SATELIOT_2, 60534

Orbit data source: Space-Track

SATELIOT_2, 60534 is a payload satellite owned by Sateliot (ES) in SSO that was launched on Fri, 16 Aug 2024 UTC via an FALCON 9 launch vehicle from the Air Force Western Test Range (AFWTR). Payload-class satellites include a variety of spacecraft equipped with specific instruments for various scientific and technological missions. These include communications satellites like Starlink; space stations such as the ISS; scientific satellites like the Hubble; Earth observation satellites from companies like Planet Labs, Umbra, and HawkEye 360; GPS; miniature CubeSats for education and research; and military/defense satellites.

Loading next visibility...
Identifier
60534, 2024-149BU
Orbit
SSO
Country
Flag of ESES / SPN
Related business
Manufacturer
Endurosat
Mission
Operational Commercial Communications
Bus & Motor
CUBESAT 6U, Unknown motor
Mass
7.407 kg wet, 7.407 kg dry
Launch date (UTC)
2024-08-16 (2 years ago)
Launch vehicle
FALCON 9
Launch site
Air Force Western Test Range (AFWTR)
Object type
Payload
Rocket body
Debris
Shape & HBR
Box + 2 Pan, 0.2 m
Radar Cross Section
0.092 m², Medium (>0.1 m² and < 1m²)

Expand to show TLE details & history
Last TLE update: 7 hours ago

TLE from 7 hours ago
0 SATELIOT_2
1 60534U 24149BU  26112.18553060  .00000932  00000-0  87868-4 0  9993
2 60534  97.6843 188.1677 0001006  91.0927 269.0409 14.96149883 91597
Epoch: 2026-04-22T04:27Z
TLE epoch observation values (Epoch: 2026-04-22T04:27:09.843Z)
Latitude
-0.00011°
Longitude
-88.87388°
Altitude
581.868 km
Speed
7.569 km/s
True Right ascension
12h 32m 40s
True Declination
0° 00' 00"
Sunlit
Object was in full shadow at epoch
Visualization orbit readout
Latitude
Unknown
Longitude
Unknown
Altitude
Unknown
Speed
Unknown
Apparent Right ascension
Unknown
Apparent Declination
Unknown
Sunlit
N/A
Visualization observer readout
Local Sidereal Time
18:05:40
Azimuth
Unknown
Elevation
Unknown
Doppler factor
Unknown
Orbital elements
Apogee altitude
576.515 km
Perigee altitude
575.116 km
Semi-major axis
6,953.953 km
Eccentricity
0.0001
Inclination
97.6843°
RAAN
188.1677°
Arg. of periapsis
91.0927°
True anomaly
269.02937°
Mean anomaly
269.0409°
Eccentric anomaly
269.03514°
Mean motion
3.74279 °/min
Orbital period
96.18 mins
BSTAR
0.000087868
Loading maneuver chart data...
Computing Atmospheric mass density...
Loading historical data...
Loading historical data...
Loading historical data...
Loading historical data...
Loading historical data...
Loading historical data...
Loading historical data...

Documentation

Showing up to 5 results
|